Location: Marcé
(47.5801°N, 0.3280°W)
Time: 19:07:10
(UTC+01:00)

Vanguard 3 - All Passes

Search period start: 06 December 2021 00:00
Search period end: 16 December 2021 00:00
Orbit: 508 x 3260 km, 33.4° (Epoch: 05 December)

Date Brightness Start Highest point End Pass type
(mag) Time Alt. Az. Time Alt. Az. Time Alt. Az.
06 Dec - 00:44:58 10° SE 00:50:28 12° SE 00:56:10 10° ESE visible
06 Dec - 02:47:35 10° SSW 03:02:57 33° SSE 03:18:13 10° E visible
06 Dec - 04:59:04 10° SW 05:17:22 48° S 05:32:34 10° ESE visible
06 Dec - 07:14:07 10° WSW 07:31:53 47° SSW 07:44:25 10° SE visible
06 Dec - 09:31:30 10° W 09:44:27 28° SW 09:53:29 10° SSE daylight
07 Dec - 01:34:48 10° S 01:47:17 23° SE 02:00:38 10° E visible
07 Dec - 03:43:40 10° SW 04:00:53 43° SSE 04:17:07 10° E visible
07 Dec - 05:57:08 10° WSW 06:15:44 50° S 06:30:13 10° ESE visible
07 Dec - 08:13:20 10° W 08:29:35 39° SSW 08:40:53 10° SE daylight
07 Dec - 10:32:54 10° W 10:40:52 16° SW 10:47:10 10° SSW daylight
08 Dec - 00:24:58 10° SSE 00:32:15 14° SE 00:40:05 10° ESE visible
08 Dec - 02:29:22 10° SSW 02:44:40 35° SSE 03:00:44 10° E visible
08 Dec - 04:40:56 10° WSW 04:59:11 49° S 05:15:18 10° ESE visible
08 Dec - 06:55:50 10° W 07:13:55 47° SSW 07:27:20 10° SE visible
08 Dec - 09:13:16 10° W 09:26:39 27° SW 09:36:20 10° SSE daylight
09 Dec - 01:16:27 10° S 01:29:00 26° SE 01:43:08 10° E visible
09 Dec - 03:25:39 10° SW 03:42:36 45° SSE 03:59:37 10° E visible
09 Dec - 05:39:01 10° WSW 05:57:36 51° S 06:12:59 10° ESE visible
09 Dec - 07:55:03 10° W 08:11:38 38° SSW 08:23:44 10° SSE visible
09 Dec - 10:15:06 10° W 10:23:02 16° SW 10:29:32 10° SSW daylight
10 Dec - 00:05:55 10° SSE 00:14:03 16° SE 00:23:11 10° E visible
10 Dec - 02:11:24 10° SSW 02:26:22 37° SSE 02:43:05 10° E visible
10 Dec - 04:22:58 10° WSW 04:40:56 51° S 04:57:52 10° ESE visible
10 Dec - 06:37:39 10° W 06:55:50 46° SSW 07:10:06 10° SE visible
10 Dec - 08:55:06 10° W 09:08:41 26° SW 09:18:58 10° S daylight
11 Dec - 00:58:25 10° S 01:10:45 27° SE 01:25:24 10° E visible
11 Dec - 03:07:50 10° SW 03:24:19 46° SSE 03:41:58 10° E visible
11 Dec - 05:21:01 10° WSW 05:39:24 51° S 05:55:36 10° ESE visible
11 Dec - 07:36:52 10° W 07:53:33 37° SSW 08:06:25 10° SSE visible
11 Dec - 09:57:29 10° WSW 10:05:06 15° SW 10:11:33 10° SSW daylight
11 Dec - 23:47:26 10° SSE 23:55:53 17° SE 00:05:48 10° E visible
12 Dec - 01:53:40 10° SSW 02:08:05 39° SSE 02:25:13 10° E visible
12 Dec - 04:05:11 10° WSW 04:22:40 51° S 04:40:16 10° ESE visible
12 Dec - 06:19:37 10° W 06:37:38 45° SSW 06:52:42 10° SE visible
12 Dec - 08:37:02 10° W 08:50:38 25° SW 09:01:24 10° S daylight
13 Dec - 00:40:38 10° SSW 00:52:32 29° SE 01:07:29 10° E visible
13 Dec - 02:50:11 10° SW 03:06:02 48° SSE 03:24:10 10° E visible
13 Dec - 05:03:10 10° WSW 05:21:08 50° S 05:38:03 10° ESE visible
13 Dec - 07:18:48 10° W 07:35:22 35° SSW 07:48:54 10° SSE visible
13 Dec - 09:40:09 10° WSW 09:47:02 13° SW 09:53:08 10° SSW daylight
13 Dec - 23:29:21 10° S 23:37:46 18° SE 23:48:07 10° E visible
14 Dec - 01:36:06 10° SW 01:49:51 40° SSE 02:07:13 10° E visible
14 Dec - 03:47:33 10° WSW 04:04:24 52° S 04:22:32 10° ESE visible
14 Dec - 06:01:42 10° W 06:19:23 44° SSW 06:35:07 10° SE visible
14 Dec - 08:19:07 10° W 08:32:28 24° SW 08:43:34 10° S daylight
15 Dec - 00:23:04 10° SSW 00:34:25 30° SE 00:49:23 10° E visible
15 Dec - 02:32:43 10° SW 02:47:48 48° SSE 03:06:11 10° ESE visible
15 Dec - 04:45:29 10° WSW 05:02:51 50° S 05:20:19 10° ESE visible
15 Dec - 07:00:53 10° W 07:17:07 34° SSW 07:31:09 10° SSE visible
15 Dec - 09:23:21 10° WSW 09:28:54 12° SW 09:34:02 10° SW daylight
15 Dec - 23:11:34 10° S 23:19:46 19° SE 23:30:14 10° E night (unlit)
